Location: Newark
(39.2833°N, 16.3333°E)
Time: 05:39:52
(UTC+00:00)

LightSail 2 - Pass Details

Date: 14 October 2019
Orbit: 701 x 726 km, 24.0° (Epoch: 13 November)

Event Time Altitude Azimuth Distance (km) Brightness Sun altitude
Rises 18:04:39 0° 235° (SW) 3,095 9.2 -21.4°
Reaches altitude 10° 18:08:10 10° 211° (SSW) 2,182 7.9 -22.1°
Maximum altitude 18:10:51 14° 179° (S) 1,909 7.3 -22.6°
Enters shadow 18:11:22 14° 173° (S) 1,920 7.2 -22.7°
